{"data":{"norad_id":63571,"intl_designator":"2025-076C","name":"STARLINK-33722","alt_names":[],"object_type":"PAYLOAD","status":"ACTIVE","operator":null,"country":"US","launch_date":"2025-04-14","launch_site_code":"AFETR","launch_vehicle":null,"mission":null,"orbit_class":"UNKNOWN","rcs_meters":null,"size_class":null,"mass_kg":null,"dimensions":null,"purposes":["comms"],"wikipedia_slug":null,"has_3d_model":false,"image_url":null,"decayed_at":null,"tle_current":{"epoch":"2026-05-24T16:20:02.690016Z","epoch_age_seconds":99781,"freshness":"FRESH","line1":"1 63571U 25076C   26144.68058669  .00012292  00000+0  45524-3 0  9995","line2":"2 63571  43.0010 252.4219 0001772 270.1107  89.9542 15.27597275 63446","mean_motion":15.27597275,"eccentricity":0.0001772,"inclination_deg":43.001,"raan_deg":252.4219,"arg_perigee_deg":270.1107,"mean_anomaly_deg":89.9542,"bstar":0.00045524,"rev_number":6344,"period_min":94.265682687867,"perigee_km":481.7815759523,"apogee_km":484.21316197266,"semimajor_km":6861.1343689625,"source":"CELESTRAK","updated_at":"2026-05-25T13:38:20.045721Z"}}}